Sitka, AK

3:59 PM AKST on January 18, 2017 (GMT -0900)
Sitka Rocky Gutierrez

Weather History for PASI - November, 2012

Change the Weather History Date:

Monday, November 5, 2012

  Actual Average Record
Temperature  
Mean Temperature 44 °F -  
Max Temperature 46 °F 45 °F 54 °F (2002)
Min Temperature 41 °F 37 °F 25 °F (1973)
Degree Days  
Heating Degree Days 22    
Moisture  
Dew Point 41 °F    
Average Humidity 87    
Maximum Humidity 97    
Minimum Humidity 73    
Precipitation  
Precipitation 0.75 in - - ()
Sea Level Pressure  
Sea Level Pressure 29.85 in    
Wind  
Wind Speed 13 mph (SSE)    
Max Wind Speed 22 mph    
Max Gust Speed 43 mph    
Visibility 8 miles    
Events Rain    
Averages and records for this station are not official NWS values.
T = Trace of Precipitation, MM = Missing Value Source: NWS Daily Summary

Daily Weather History Graph

Daily Weather History Graph

Search for Another Location

Airport or City:

Trip Planner

Search our weather history database for the weather conditions in past years. The results will help you decide how hot, cold, wet, or windy it might be!

Date:

Astronomy

Nov. 05, 2012 Rise Set
Actual Time 7:22 AM AKST 4:06 PM AKST
Civil Twilight 6:40 AM AKST 4:48 PM AKST
Nautical Twilight 5:54 AM AKST 5:34 PM AKST
Astronomical Twilight 5:10 AM AKST 6:18 PM AKST
Moon 9:55 PM AKST (11/5) 12:47 PM AKST (11/5)
Length of Visible Light 10h 07m
Length of Day
8h 44m
Waning Gibbous, 61% of the Moon is Illuminated
Nov 5
Waning Gibbous
Nov 6
Last Quarter
Nov 13
New
Nov 20
First Quarter
Nov 28
Full

Hourly Weather History & Observations

Time (AKST) Temp. Windchill Dew Point Humidity Pressure Visibility Wind Dir Wind Speed Gust Speed Precip Events Conditions
12:41 AM 46.4 °F 41.9 °F 44.6 °F 93% 29.46 in 6.0 mi South 9.2 mph - 0.06 in Rain Light Rain
12:53 AM 46.0 °F 41.4 °F 45.0 °F 96% 29.47 in 5.0 mi SSW 9.2 mph - 0.08 in Rain Light Rain
1:03 AM 46.4 °F 41.5 °F 44.6 °F 93% 29.48 in 4.0 mi South 10.4 mph - 0.02 in Rain Rain
1:10 AM 46.4 °F 40.1 °F 44.6 °F 93% 29.49 in 5.0 mi SSW 15.0 mph 19.6 mph 0.03 in Rain Rain
1:53 AM 46.0 °F 39.3 °F 44.1 °F 93% 29.55 in 7.0 mi WSW 16.1 mph - 0.08 in Rain Light Rain
2:42 AM 44.6 °F 40.2 °F 42.8 °F 93% 29.62 in 7.0 mi WSW 8.1 mph - 0.04 in Rain Light Rain
3:53 AM 45.0 °F 38.2 °F 44.1 °F 97% 29.68 in 7.0 mi SSW 15.0 mph - 0.05 in Rain Light Rain
4:53 AM 45.0 °F 38.9 °F 44.1 °F 97% 29.73 in 8.0 mi South 12.7 mph 20.7 mph 0.08 in Rain Light Rain
5:35 AM 46.4 °F 40.7 °F 42.8 °F 87% 29.76 in 10.0 mi South 12.7 mph - 0.01 in   Overcast
5:53 AM 46.0 °F 40.6 °F 42.1 °F 86% 29.77 in 8.0 mi South 11.5 mph - 0.01 in Rain Light Rain
6:11 AM 44.6 °F 36.4 °F 42.8 °F 93% 29.78 in 5.0 mi South 20.7 mph 26.5 mph 0.03 in Rain Rain
6:21 AM 44.6 °F 38.4 °F 41.0 °F 87% 29.79 in 8.0 mi South 12.7 mph 24.2 mph 0.04 in Rain Rain
6:45 AM 44.6 °F 37.4 °F 42.8 °F 93% 29.79 in 7.0 mi South 16.1 mph 21.9 mph 0.05 in Rain Light Rain
6:53 AM 45.0 °F 37.6 °F 43.0 °F 93% 29.80 in 5.0 mi South 17.3 mph 26.5 mph 0.06 in Rain Light Rain
7:53 AM 46.0 °F 39.9 °F 42.1 °F 86% 29.84 in 7.0 mi South 13.8 mph 25.3 mph 0.02 in Rain Light Rain
8:03 AM 46.4 °F 39.8 °F 42.8 °F 87% 29.84 in 1.5 mi South 16.1 mph 21.9 mph 0.01 in Rain Light Rain
8:07 AM 44.6 °F 37.2 °F 42.8 °F 93% 29.84 in 6.0 mi South 17.3 mph - 0.01 in Rain Light Rain
8:53 AM 45.0 °F 36.9 °F 42.1 °F 90% 29.88 in 8.0 mi South 20.7 mph 42.6 mph 0.03 in Rain Light Rain
9:01 AM 46.4 °F 40.4 °F 42.8 °F 87% 29.88 in 8.0 mi South 13.8 mph 28.8 mph 0.00 in Rain Light Rain
9:14 AM 46.4 °F 40.1 °F 42.8 °F 87% 29.89 in 7.0 mi South 15.0 mph 25.3 mph 0.00 in Rain Light Rain
9:31 AM 44.6 °F 36.4 °F 41.0 °F 87% 29.90 in 7.0 mi South 20.7 mph 27.6 mph 0.00 in Rain Light Rain
9:53 AM 45.0 °F 36.9 °F 42.1 °F 90% 29.91 in 5.0 mi South 20.7 mph 27.6 mph 0.03 in Rain Rain
10:53 AM 45.0 °F 37.1 °F 39.9 °F 82% 29.96 in 7.0 mi SSW 19.6 mph 28.8 mph 0.01 in Rain Light Rain
11:05 AM 44.6 °F 37.8 °F 39.2 °F 81% 29.95 in 7.0 mi South 15.0 mph 23.0 mph 0.00 in Rain Light Rain
11:53 AM 46.0 °F 39.6 °F 39.0 °F 76% 29.97 in 6.0 mi South 15.0 mph 25.3 mph 0.00 in   Haze
12:53 PM 46.0 °F 39.6 °F 37.9 °F 73% 29.99 in 10.0 mi South 15.0 mph 21.9 mph N/A   Overcast
1:00 PM 46.4 °F 38.5 °F 39.2 °F 76% 29.99 in 6.0 mi South 21.9 mph 34.5 mph 0.00 in Rain Light Rain
1:11 PM 44.6 °F 37.2 °F 37.4 °F 76% 30.00 in 9.0 mi South 17.3 mph - 0.00 in   Overcast
1:53 PM 44.1 °F 37.4 °F 37.9 °F 79% 30.01 in 10.0 mi SSE 13.8 mph 21.9 mph 0.01 in Rain Light Rain
2:53 PM 45.0 °F 40.6 °F 37.9 °F 76% 30.00 in 10.0 mi ESE 8.1 mph - 0.00 in   Overcast
3:53 PM 44.1 °F 37.1 °F 37.9 °F 79% 30.01 in 6.0 mi ESE 15.0 mph - 0.00 in Rain Light Rain
4:53 PM 44.1 °F 40.1 °F 37.9 °F 79% 29.99 in 10.0 mi East 6.9 mph - 0.01 in Rain Light Rain
5:15 PM 42.8 °F 35.8 °F 39.2 °F 87% 29.99 in 7.0 mi SE 13.8 mph - 0.03 in Rain Rain
5:37 PM 42.8 °F 36.2 °F 39.2 °F 87% 30.00 in 10.0 mi East 12.7 mph - 0.03 in   Overcast
5:53 PM 43.0 °F 38.2 °F 39.0 °F 86% 29.99 in 10.0 mi East 8.1 mph - 0.03 in   Overcast
6:53 PM 42.1 °F 35.7 °F 39.0 °F 89% 29.97 in 10.0 mi East 11.5 mph - N/A   Mostly Cloudy
7:53 PM 44.1 °F 37.4 °F 37.0 °F 76% 29.95 in 10.0 mi ESE 13.8 mph - 0.01 in Rain Light Rain
8:53 PM 44.1 °F 37.7 °F 37.9 °F 79% 29.94 in 8.0 mi ESE 12.7 mph - 0.03 in Rain Rain
9:04 PM 42.8 °F 37.0 °F 37.4 °F 81% 29.93 in 8.0 mi ESE 10.4 mph - 0.01 in Rain Light Rain
9:53 PM 42.1 °F 34.9 °F 39.0 °F 89% 29.93 in 5.0 mi ESE 13.8 mph - 0.14 in Rain Rain
10:29 PM 41.0 °F 32.5 °F 37.4 °F 87% 29.91 in 10.0 mi ESE 17.3 mph 23.0 mph 0.05 in Rain Light Rain
10:53 PM 41.0 °F 33.1 °F 37.9 °F 89% 29.91 in 10.0 mi ESE 15.0 mph - 0.05 in   Overcast
11:01 PM 41.0 °F 33.5 °F 39.2 °F 93% 29.90 in 10.0 mi ESE 13.8 mph - N/A   Overcast
11:53 PM 42.1 °F 35.7 °F 39.0 °F 89% 29.89 in 10.0 mi ESE 11.5 mph - 0.02 in   Overcast